CAPE
747 668 594 934 1064 985 987 689 695 611 876 757 974 992 791 1391 954 1021 1044 1101 997 1072 1221 1328 1346 1303 1253 1530 1432 1415 1481 1575 1494 1611 1632 1672 1649 1680 1720 1684 1438 1269 1375 1474 1692 1705 1667 1452 1460 1461 1566 1744 1825 1813 1514 1436 1514 1542 1474 1362 1405 1435 1457 1389 1254 1271 1146 1028 902 816 609 655 517 478 460 532 675 823 785 931 1004 1014 965 904 946
769 828 871 915 964 1007 982 670 622 495 873 742 774 1043 936 907 1329 1039 1129 1168 1128 1245 1279 1277 1250 1220 1219 1343 1485 1503 1470 1525 1562 1568 1613 1618 1674 1689 1665 1680 1572 1332 1117 1245 1264 1563 1507 1560 1502 1476 1494 1550 1555 1599 1600 1672 1655 1541 1320 1211 1228 1241 1162 1072 1084 1047 986 901 790 818 789 559 430 464 406 360 486 605 622 760 950 1001 868 837 717
992 977 1001 970 936 933 851 968 1046 924 1020 1021 856 696 1106 1047 956 1138 1169 1245 1254 1221 1159 1185 1162 1164 1140 1089 1225 1409 1485 1488 1494 1457 1478 1515 1542 1548 1622 1645 1604 1449 1248 1148 1196 1187 1196 1323 1321 1334 1554 1725 1824 1784 1654 1550 1686 1348 1191 1068 1050 1076 1077 1045 975 906 689 656 503 620 800 717 535 390 407 433 508 418 363 584 769 847 886 876 661
1111 1154 1185 1139 1040 922 922 979 1094 1063 1041 925 846 877 919 978 1041 1274 1156 1292 1341 1340 1341 1244 1191 1138 1108 1200 1265 1309 1323 1404 1463 1432 1407 1447 1359 1368 1660 1538 1501 1471 1366 1331 1266 1276 1464 1547 1484 1396 1631 1800 1692 1403 1115 1139 1215 1091 1120 1149 1162 1109 979 1024 886 978 658 594 853 790 969 568 588 445 398 422 324 253 312 404 612 610 638 425 269
1111 1330 1357 1405 1323 1117 1011 1010 1024 950 1032 1036 1007 946 1015 1282 1316 1383 1457 1425 1440 1437 1464 1419 1381 1305 1154 1212 1287 1448 1459 1314 1379 1442 1454 1457 1432 1503 1388 1343 1202 1220 1238 1324 1371 1480 1631 1656 1701 1725 1635 1483 1459 1297 1194 1118 1103 1104 1064 989 927 950 1017 916 868 746 804 647 716 830 822 400 358 309 316 188 138 144 257 311 394 432 397 207 129
1197 1343 1371 1237 1336 1379 1211 1061 1044 1076 1171 1220 1220 1130 1181 1433 1564 1548 1600 1634 1618 1595 1532 1605 1596 1425 1210 1102 1195 1398 1444 1301 1323 1468 1563 1588 1542 1514 1463 1383 1260 1327 1439 1425 1479 1581 1650 1755 1712 1628 1558 1269 1110 1170 1036 1032 919 851 890 851 862 895 977 962 912 957 836 801 617 654 389 302 209 140 101 81 48 80 172 298 404 303 227 93 124
1565 1309 1153 1119 1342 1383 1350 1320 1325 1198 1178 1270 1267 1339 1369 1376 1560 1752 1824 1821 1805 1822 1800 1725 1580 1424 1331 1245 1189 1238 1333 1286 1473 1628 1748 1706 1457 1500 1488 1463 1456 1532 1652 1675 1642 1619 1661 1615 1663 1488 1258 1224 1212 1204 1011 932 949 896 894 826 760 825 947 781 746 801 742 757 720 262 213 344 48 25 67 90 73 74 119 123 148 182 148 86 69
1621 1550 1315 1078 1154 1354 1100 1205 1238 1192 1236 1317 1316 1337 1387 1408 1557 1738 1832 1906 1978 1992 1954 1799 1613 1486 1477 1423 1335 1431 1442 1548 1594 1636 1612 1535 1568 1581 1566 1504 1581 1731 1778 1820 1707 1558 1518 1478 1454 1356 1172 1205 1195 956 913 973 1014 1015 950 931 880 868 721 736 708 775 576 587 513 395 377 55 33 14 33 16 3 3 17 83 56 36 51 62 14
1381 1262 1322 1215 1024 1033 1031 963 1288 1337 1381 1321 1372 1395 1315 1339 1524 1735 1914 2006 1980 1895 1813 1734 1528 1442 1320 1209 1453 1620 1436 1437 1443 1461 1545 1612 1608 1631 1598 1591 1654 1773 1720 1633 1483 1447 1471 1336 1245 1076 1088 1210 1326 1192 1151 1086 996 1126 1019 890 797 686 588 597 566 352 476 510 474 280 54 47 12 4 3 0 0 0 1 3 4 6 0 8 58
1280 1234 1167 1154 1150 1010 1187 1182 1234 1314 1348 1493 1592 1580 1402 1356 1556 1814 1865 1812 1576 1365 1469 1579 1550 1380 1234 1289 1312 1376 1294 1251 1863 2066 1676 1526 1540 1564 1791 1781 1686 1525 1305 1329 1360 1240 1062 1026 1076 1135 1118 1077 1094 930 877 918 1010 1282 1112 664 768 656 614 407 580 574 628 603 269 55 32 0 1 1 0 0 0 0 0 0 0 0 0 4 49
1232 1284 1190 1061 1075 1206 1266 1406 1494 1450 1396 1458 1491 1404 1328 1179 1216 1483 1522 1494 1404 1409 1229 1230 1321 1406 1160 1138 1106 1246 1327 1320 2395 1546 1486 1532 1552 1801 1578 1311 1511 1603 1270 1265 1242 1105 1050 997 946 1013 975 1005 880 548 534 380 528 662 943 1209 931 786 684 686 742 848 569 391 299 216 0 1 2 0 0 0 0 0 0 0 0 0 0 0 2
1077 1139 1314 1100 903 922 1107 1199 1496 1691 1563 1564 1443 1291 1160 1072 1146 1392 1447 1415 1445 1390 1290 1088 1158 1306 1318 1041 1136 1299 1201 1746 1882 1536 1644 1723 1710 1486 1272 1641 1817 1544 1193 1122 1096 1028 969 1026 1001 811 601 432 323 34 214 410 540 657 1008 1199 1190 1308 1281 1156 990 404 298 346 310 228 3 4 0 0 0 0 0 0 1 0 0 0 0 0 0
1048 959 951 1222 1302 1154 1088 1197 1244 1204 874 995 930 961 1000 1004 1125 1309 1348 1337 1285 1254 1258 1291 1197 1058 1082 949 912 999 1208 1592 1628 1818 1941 1744 1440 1559 2191 2050 1654 1058 811 1096 991 962 941 774 561 467 256 0 0 0 0 171 279 278 255 518 598 540 390 440 409 423 179 18 5 1 0 0 0 1 3 4 3 1 1 0 0 0 0 0 2
1042 1147 1176 1086 1136 1119 1144 1038 800 822 912 920 977 900 896 1038 1116 1206 1259 1208 1186 1169 1217 1288 1195 1253 1153 1307 1129 1348 1669 1812 1833 2052 1679 1541 1842 1987 1940 1513 1002 723 996 1014 857 771 593 291 0 0 0 0 0 0 0 0 0 0 51 65 115 105 104 131 154 101 21 0 0 0 0 0 1 2 6 4 3 3 4 3 1 2 1 0 1
993 987 1065 1179 1155 1098 1008 1096 970 982 1040 1007 1061 1095 1077 1205 1275 1340 1353 1364 1386 1515 1542 1351 1098 1243 1409 1346 1376 1503 1662 1627 1393 1193 1482 1587 1738 1773 1488 1161 1009 1056 891 725 669 463 0 0 0 0 0 0 1 0 0 0 0 0 0 0 18 7 23 35 49 48 40 33 1 1 1 1 1 3 6 10 12 17 16 16 10 7 5 4 4
1162 1096 1015 1006 1076 1030 980 1017 1032 1086 1128 1115 1145 1165 1286 1343 1356 1495 1758 1665 1518 1431 1233 1180 1213 1198 1118 1124 1303 1601 1434 1271 1261 1402 1658 1567 1607 1393 1098 1037 896 843 756 673 450 0 0 0 0 0 0 0 0 0 0 0 0 0 0 2 2 3 0 0 2 1 0 0 0 0 0 0 0 0 0 2 8 22 36 50 28 19 13 14 4
1175 1176 1188 1114 1046 1079 1098 1033 982 992 1144 1130 1130 1183 1446 1251 1151 1491 1435 1147 1375 1250 1244 1155 1116 1128 1124 1190 1269 1489 1621 1583 1420 1628 1751 1490 1280 1181 1125 916 858 792 709 556 78 0 0 0 0 0 0 0 0 0 0 0 0 0 0 0 0 0 0 0 0 2 2 2 1 1 0 0 0 0 0 0 0 0 2 4 3 6 5 1 1
1128 1234 1238 1255 1217 1211 1198 1147 1078 929 1042 1151 1199 1275 1316 1172 1483 1523 1433 1060 1073 1141 1081 947 955 1090 1146 1192 1332 1548 1709 1633 1543 1758 1603 1484 1286 1194 1041 791 672 590 520 157 0 0 1 0 0 0 0 0 0 0 0 0 0 0 0 0 0 0 0 2 2 2 2 2 2 1 0 0 0 0 0 0 0 0 0 0 0 13 16 10 4
955 912 1115 1075 1118 1258 1208 1177 1055 934 903 1169 1269 1198 1301 1450 1428 1418 1383 1158 996 966 970 860 838 883 919 982 1087 1426 1644 1633 1580 1806 1707 1466 1240 1088 883 430 296 320 68 0 0 1 0 0 0 0 0 0 0 0 0 0 0 0 0 0 0 0 0 0 0 0 0 0 0 0 0 0 0 0 0 0 0 0 0 1 0 6 3 0 0
1136 969 809 994 1176 1244 1154 1115 1049 952 966 982 1275 1516 1378 1232 1057 1070 1026 1034 1067 972 853 900 946 941 1018 1115 1315 1382 1561 1604 1508 1789 1563 1303 1112 929 634 234 160 0 0 0 0 0 0 0 0 0 0 0 0 0 0 0 0 0 0 0 0 0 0 0 0 0 0 0 0 0 0 0 0 0 0 0 0 0 0 0 0 0 0 0 0
1036 1086 973 1028 1166 1273 1262 1112 1130 1190 1156 1077 1171 1209 1090 933 866 835 922 1089 1196 776 594 806 956 1150 1443 1347 1051 1380 1576 1484 1444 1470 1334 1215 1120 820 392 174 55 0 0 0 0 0 0 0 0 0 0 0 0 0 0 0 0 0 0 0 0 0 0 0 0 0 0 0 0 0 0 0 0 0 0 0 0 0 0 0 0 0 0 0 0
1000 1020 967 982 1148 1180 1137 1131 1190 1139 1183 1176 1085 1034 974 954 931 1034 1146 1215 1039 704 558 606 1032 1334 1307 1320 1390 1386 1371 1257 1131 1288 1303 1211 1070 690 289 174 151 132 0 0 0 0 0 0 0 0 0 0 0 0 0 0 0 0 0 0 0 0 0 0 0 0 0 0 0 0 0 0 0 0 0 0 0 0 0 0 0 0 0 0 0
979 1043 975 980 943 1027 1162 1281 871 806 1040 1098 1171 1126 973 1069 1215 1299 1398 1255 711 573 569 648 1141 1372 1130 1151 1119 1279 1193 896 788 1243 1352 1208 988 616 302 227 192 0 0 0 0 0 0 0 0 0 0 0 0 0 0 0 0 0 0 0 0 0 0 0 0 0 0 0 0 0 0 0 0 0 0 0 0 0 0 0 0 0 0 0 0
996 1079 917 858 933 972 915 793 722 661 837 1149 1204 1164 1215 1226 1283 1340 1286 1156 592 546 685 904 1209 1207 1116 1066 1049 984 762 639 850 1154 1288 1236 981 692 492 412 255 249 91 0 1 0 0 0 0 0 0 0 0 0 0 0 0 0 0 0 0 0 0 0 0 0 0 0 0 0 0 0 0 0 0 0 0 0 0 0 0 0 0 0 0
1089 1151 1102 971 894 994 1093 956 921 870 1019 1091 1167 1078 1217 1183 1071 1021 1038 857 701 712 828 1127 1118 1036 973 767 558 555 608 694 807 853 1101 1142 1078 872 739 590 346 279 118 2 1 0 0 0 0 0 0 0 0 0 0 0 0 0 0 0 0 0 0 0 0 0 0 0 0 0 0 0 0 0 0 0 0 0 0 0 0 0 0 0 0
1060 979 954 799 770 687 935 1024 1084 726 1017 1069 1048 999 971 954 1062 823 721 698 688 789 1112 1089 1007 912 718 554 511 544 581 610 735 797 827 930 892 790 596 397 272 199 112 32 0 0 0 0 0 0 0 0 0 0 0 0 0 0 0 0 0 0 0 0 0 0 0 0 0 0 0 0 0 0 0 0 0 0 0 0 0 0 0 0 0
1088 939 928 919 972 989 763 827 875 951 1004 1055 805 1006 884 811 771 743 759 659 675 950 1081 1011 941 828 700 607 477 480 476 480 569 579 632 620 519 347 280 216 186 2 2 20 0 0 0 0 0 2 1 1 0 0 0 0 0 0 0 0 0 0 0 0 0 0 0 0 0 0 0 0 0 0 0 0 0 0 0 0 0 0 0 0 0
1086 915 861 937 970 1102 1027 991 905 810 821 1000 846 794 923 698 633 674 646 618 761 1047 956 940 922 803 723 586 433 430 400 339 384 400 378 322 291 240 200 176 88 0 0 0 0 0 0 0 2 2 1 1 0 0 0 0 0 0 0 0 0 0 0 0 0 0 0 0 0 0 0 0 0 0 0 0 0 0 0 0 0 0 0 0 0
1074 1008 902 850 988 1105 1011 917 951 958 930 876 880 910 858 805 714 676 638 741 883 1079 974 928 838 778 612 488 377 374 347 376 340 311 312 268 229 212 180 88 0 0 0 0 0 0 0 1 2 3 3 1 0 0 0 0 0 0 0 0 0 0 0 0 0 0 0 0 0 0 0 0 0 0 0 0 0 0 0 0 0 0 0 0 0
1044 961 824 814 904 1054 1022 868 946 996 918 840 680 727 727 810 774 709 529 598 892 1008 944 892 806 660 535 387 323 328 319 257 226 241 238 223 196 175 0 0 0 0 0 0 0 0 3 5 6 6 3 0 0 0 0 0 0 0 0 0 0 0 0 0 0 0 0 0 0 0 0 0 0 0 0 0 0 0 0 0 0 0 0 0 0
1094 1030 943 914 855 829 829 876 909 858 842 872 880 896 905 828 777 735 771 654 715 786 846 821 727 606 488 321 191 244 121 72 232 256 227 0 0 0 0 0 0 0 0 0 0 4 6 9 6 4 1 0 0 0 0 0 0 0 0 0 0 0 0 0 0 0 0 0 0 0 0 0 0 0 0 0 0 0 0 0 1 2 1 0 0
1018 959 969 904 894 876 822 952 942 964 1000 1003 1036 1088 1012 882 815 717 619 698 858 764 733 591 515 432 230 0 30 120 38 0 0 0 0 0 0 0 0 0 0 4 1 0 3 5 4 3 4 1 2 0 0 0 0 0 0 0 0 0 0 0 0 0 0 0 0 0 0 0 0 0 0 0 0 0 0 0 0 0 0 0 0 1 2
992 934 865 915 854 874 902 868 958 993 1047 1064 1044 1019 1118 1042 792 766 837 935 900 604 460 252 255 0 0 0 0 75 104 169 169 53 0 0 0 0 0 13 18 5 4 5 4 6 6 2 1 0 2 1 0 0 0 0 0 0 0 0 0 0 0 0 0 0 0 0 0 0 0 0 0 0 0 0 0 0 0 0 0 0 1 1 2
1022 956 890 902 843 813 772 789 808 964 1022 1001 1020 1000 968 881 893 964 894 756 725 357 334 192 0 0 0 0 73 155 212 208 154 0 0 0 0 0 4 9 15 18 8 4 4 3 5 2 1 0 0 0 0 0 0 0 0 0 0 0 0 0 0 0 0 0 0 0 0 0 0 0 0 0 0 0 0 0 0 0 0 0 0 0 0
1066 985 837 730 691 662 586 693 694 812 977 1004 1011 869 572 768 923 900 782 734 478 309 266 135 30 0 80 146 219 254 233 177 106 0 0 0 0 0 1 3 13 18 14 9 7 4 3 1 0 0 0 0 0 0 0 0 0 0 0 0 0 0 0 0 0 0 0 0 0 0 0 0 0 0 0 0 0 0 0 0 0 0 0 0 0
942 1045 924 705 566 534 515 609 720 789 945 1006 928 750 584 866 858 703 740 712 470 318 210 189 137 131 192 228 217 140 0 0 0 0 0 0 0 0 0 2 3 0 0 0 0 0 0 0 0 0 0 0 0 0 0 0 0 0 0 0 0 0 0 0 0 0 0 0 0 0 0 0 0 0 0 0 0 0 0 0 0 0 0 0 2
852 849 849 808 644 521 504 628 705 730 821 975 1006 804 729 873 785 765 771 776 545 330 240 226 211 215 240 227 11 0 0 0 0 0 0 0 0 0 0 0 0 0 0 0 0 0 0 0 0 0 0 0 0 0 0 0 0 0 0 0 0 0 0 0 0 0 0 0 0 0 0 0 0 0 0 0 0 0 0 0 0 0 0 0 0
814 885 824 702 551 427 448 602 732 743 711 919 975 828 783 940 832 868 830 811 557 369 258 272 256 273 245 61 0 0 0 0 0 0 0 0 0 0 0 0 0 0 0 0 0 0 0 0 0 0 0 0 0 0 0 0 0 0 0 0 0 0 0 0 0 0 0 0 0 0 0 0 0 0 0 0 0 0 0 0 0 0 0 0 0
837 783 734 656 559 452 480 626 766 815 782 802 749 843 940 877 863 816 785 764 486 291 314 366 349 293 126 0 0 0 0 0 0 0 0 0 0 2 0 0 0 0 0 0 0 0 0 0 0 0 0 0 0 0 0 0 0 0 0 0 0 0 0 0 0 0 0 0 0 0 0 0 0 0 0 0 0 0 0 0 0 2 3 2 2
925 881 765 768 713 563 618 677 826 919 948 866 758 828 925 890 895 898 824 830 528 384 436 430 356 228 0 0 0 0 0 0 1 7 7 0 0 0 0 0 0 0 0 0 0 0 0 0 0 0 0 0 0 0 0 0 0 0 0 0 0 0 0 0 0 0 0 0 0 0 0 0 0 0 0 0 0 0 0 0 1 2 3 3 4
947 974 892 773 645 657 600 651 824 971 755 656 704 822 968 933 857 885 758 742 693 461 453 390 348 146 0 0 0 0 0 2 3 9 4 0 0 0 0 0 0 0 0 0 0 0 0 0 0 0 0 0 0 0 0 0 0 0 0 0 0 0 0 0 0 0 0 0 0 0 0 0 0 0 0 0 0 0 0 1 1 1 2 2 2
903 1007 946 831 703 672 665 543 632 751 824 808 696 664 828 906 818 818 770 715 664 498 400 289 128 6 0 0 0 0 0 0 0 0 0 0 0 0 0 0 0 0 0 0 0 0 0 0 0 0 0 0 0 0 0 0 0 0 0 0 0 0 0 0 0 0 0 0 0 0 0 0 0 0 0 0 0 0 0 0 0 2 2 2 4
785 804 895 874 764 674 583 554 550 605 727 757 775 682 634 661 800 826 709 610 552 527 366 86 28 31 0 0 0 0 0 0 0 0 0 0 0 0 0 0 0 0 0 0 0 0 0 0 0 0 0 0 0 0 0 0 0 0 0 0 0 0 0 0 0 0 0 0 0 0 0 0 0 0 0 0 0 0 1 3 3 4 4 5 7
691 686 686 790 783 647 544 498 534 558 585 519 568 675 711 702 680 692 687 578 517 401 42 15 13 0 6 0 0 0 0 0 0 0 0 0 0 0 0 0 0 0 0 0 0 0 0 0 0 0 0 0 0 0 0 0 0 0 0 0 0 0 0 0 0 0 0 0 0 0 0 0 0 0 0 1 1 1 3 4 5 6 8 11 12
673 676 660 620 663 676 643 553 486 518 510 472 300 45 548 663 686 672 640 580 416 122 4 0 0 2 5 1 0 0 0 0 0 0 0 0 0 0 0 0 0 0 0 0 0 0 0 0 0 0 0 0 0 0 0 0 0 0 0 0 0 0 0 0 0 0 0 0 0 0 0 0 0 0 0 2 4 4 4 5 4 6 6 8 6
604 691 618 604 624 664 688 637 574 549 522 546 491 340 296 476 605 656 597 540 206 48 0 1 0 0 1 1 0 0 0 0 0 0 0 0 0 0 0 0 0 0 0 0 0 0 0 0 0 0 0 0 0 0 0 0 0 0 0 0 0 0 0 0 0 0 0 0 0 0 0 0 0 0 2 6 4 4 6 6 9 10 9 6 3
718 544 428 423 441 502 548 551 541 499 452 269 247 293 299 323 570 664 392 81 4 0 11 0 0 0 0 0 0 0 0 0 0 0 0 0 0 0 0 0 0 0 0 0 0 0 0 0 0 0 0 0 0 0 0 0 0 0 0 0 0 0 0 0 0 0 0 0 0 0 0 0 0 0 1 6 5 4 7 7 6 8 8 7 6
506 420 391 368 370 415 423 402 394 327 314 278 246 228 170 168 277 114 18 4 1 2 0 0 0 0 0 0 0 0 0 0 0 0 0 0 0 0 0 0 0 0 0 0 0 0 0 0 0 0 0 0 0 0 0 0 0 0 0 0 0 0 0 0 0 0 0 0 0 0 0 0 0 0 1 3 3 4 6 6 5 5 7 6 7
412 423 364 300 300 291 332 382 283 267 190 183 64 117 149 0 76 45 0 0 0 0 0 1 0 1 0 0 0 0 0 0 0 0 0 0 0 0 0 0 0 0 0 0 0 0 0 0 0 0 0 0 0 0 0 0 0 0 0 0 0 0 0 0 0 0 0 0 0 0 0 0 0 2 4 0 0 2 4 7 4 4 4 5 10
251 267 321 314 276 285 267 248 62 64 106 37 18 27 23 6 0 1 1 0 0 0 0 0 0 0 0 0 0 0 0 0 0 0 0 0 0 0 0 0 0 0 0 0 0 0 0 0 0 0 0 0 0 0 0 0 0 0 0 0 0 0 0 0 0 0 0 0 0 0 0 0 0 2 0 0 0 2 5 6 4 5 5 2 6
176 208 218 216 91 193 198 135 109 73 20 0 0 2 1 0 1 0 0 0 0 0 0 0 0 0 0 0 0 0 0 0 0 0 0 0 0 0 0 0 0 0 0 0 0 0 0 0 0 0 0 0 0 0 0 0 0 0 0 0 0 0 0 0 0 0 0 0 0 0 0 0 0 0 0 0 2 4 6 5 4 0 0 1 1
Wind_Speed
23 23 27 27 25 21 19 21 22 24 25 27 27 27 28 28 28 28 29 27 26 24 23 22 21 21 21 20 20 21 21 21 22 21 21 20 20 19 20 23 24 24 23 23 23 23 24 24 23 22 23 24 24 24 24 25 25 25 25 25 25 25 25 24 20 17 21 21 19 18 16 16 16 17 16 15 15 15 15 15 15 14 15 15 14
24 24 26 28 26 24 22 26 32 37 38 39 37 32 28 27 30 32 30 28 28 26 25 24 23 23 23 22 22 22 22 22 23 24 22 20 19 20 22 24 24 25 25 25 23 24 25 24 23 24 24 23 25 24 23 23 24 25 23 23 23 23 23 22 20 19 16 19 16 16 15 16 13 15 14 13 13 13 13 13 14 14 14 14 14
26 26 27 27 26 27 37 46 44 39 36 33 27 24 25 35 31 32 31 28 27 27 26 24 24 25 25 25 24 23 23 22 24 24 23 20 20 20 21 23 24 25 24 24 24 25 25 25 25 26 25 23 25 26 22 22 23 23 23 24 23 22 22 22 21 19 17 16 17 12 14 13 14 13 13 12 12 12 12 13 13 14 15 15 16
27 27 27 27 30 44 47 37 31 33 33 29 25 25 32 34 31 30 29 29 28 27 25 24 26 28 27 26 25 24 23 23 24 24 22 21 21 20 20 23 26 25 22 25 25 25 26 26 25 26 25 23 23 26 25 22 22 22 22 23 22 20 20 21 20 18 18 14 15 13 14 12 13 13 14 13 13 14 14 13 15 16 15 16 18
29 28 28 30 42 46 38 35 41 42 34 27 26 31 35 33 31 29 28 29 29 28 26 25 26 28 27 25 25 24 23 23 23 22 22 22 22 23 27 28 22 22 25 27 25 26 26 25 25 26 25 22 22 22 23 23 23 23 22 22 20 19 19 19 18 18 15 13 12 14 15 14 12 13 15 15 14 16 16 17 17 17 16 17 20
31 32 37 44 44 41 39 45 46 37 29 24 26 32 34 32 29 27 28 28 29 29 28 29 29 27 26 25 25 25 25 24 23 23 23 26 28 30 29 25 23 22 25 26 25 25 26 25 25 24 23 22 22 23 22 22 23 22 21 19 18 18 18 17 16 15 15 14 13 13 15 13 15 15 15 nan nan nan 18 18 18 19 17 nan 19
38 41 46 42 36 35 40 43 41 35 28 23 28 31 32 31 29 27 29 29 29 29 29 30 30 28 26 25 23 25 26 25 25 26 29 32 33 32 31 27 24 24 26 26 25 25 25 25 24 23 21 22 23 23 23 22 22 20 19 18 17 18 17 15 15 13 14 13 16 19 15 19 nan nan nan nan nan nan 19 20 20 21 20 nan nan
33 38 43 38 31 32 40 38 29 29 27 27 29 28 30 31 28 28 32 31 30 31 32 30 29 27 26 26 25 27 28 27 27 29 31 33 32 32 33 31 27 26 24 26 27 26 24 23 23 22 22 22 22 22 22 21 21 20 18 17 17 16 16 14 15 15 16 15 18 16 18 nan nan nan nan nan nan nan nan nan nan nan nan nan nan
39 41 42 34 28 33 41 35 28 27 28 31 33 30 31 31 32 34 36 35 34 33 32 31 29 27 27 27 29 30 30 29 29 30 33 34 33 32 33 33 31 28 23 23 26 25 24 23 23 21 21 20 19 20 21 20 21 19 18 17 17 16 16 16 16 17 15 18 17 19 nan nan nan nan nan nan nan nan nan nan nan nan nan nan nan
36 36 35 32 29 31 38 38 30 27 26 28 32 32 32 33 35 34 34 34 35 34 31 30 29 28 29 30 32 32 32 31 29 30 33 34 33 32 33 34 35 33 25 26 25 24 22 22 22 23 25 28 28 26 25 24 22 18 18 17 17 16 16 17 17 16 16 16 21 nan nan nan nan nan nan nan nan nan nan nan nan nan nan nan nan
33 32 33 33 31 31 32 34 32 27 25 26 30 32 32 34 34 32 31 31 33 35 34 30 28 29 30 33 33 33 33 32 31 32 34 38 36 35 34 32 34 36 35 33 29 28 27 26 27 28 27 26 25 26 25 23 20 19 17 18 18 19 18 17 17 18 16 20 23 24 nan nan nan nan nan nan nan nan nan nan nan nan nan nan nan
31 32 32 31 32 31 30 32 31 26 25 27 30 31 35 35 32 30 28 29 32 37 32 29 30 32 33 33 32 33 32 30 37 39 39 37 39 37 34 32 33 36 37 34 30 28 27 28 28 27 26 25 24 nan 22 22 21 21 23 25 24 21 20 17 20 23 23 25 26 26 nan nan nan nan nan nan nan nan nan nan nan nan nan nan nan
31 30 29 29 30 30 32 32 27 24 24 29 32 32 33 33 31 29 28 29 32 31 32 37 38 39 37 35 32 32 32 36 43 41 34 35 40 41 36 35 34 34 34 32 30 28 28 28 28 25 25 nan nan nan nan 20 25 27 27 28 29 30 28 29 28 26 26 nan nan nan nan nan nan nan nan nan nan nan nan nan nan nan nan nan nan
28 28 28 28 30 32 32 31 26 22 24 28 32 32 31 30 28 28 32 36 33 32 37 42 43 39 33 30 34 36 34 35 39 36 33 38 41 41 39 38 36 36 34 32 31 30 28 28 nan nan nan nan nan nan nan nan nan nan nan nan 26 29 32 34 35 35 nan nan nan nan nan nan nan nan nan nan nan nan nan nan nan nan nan nan nan
27 27 25 25 28 31 31 28 24 25 25 24 27 28 28 29 30 30 36 41 44 45 43 41 40 36 31 34 35 36 34 36 35 35 36 40 42 41 39 39 37 35 34 34 32 30 nan nan nan nan nan nan nan nan nan nan nan nan nan nan nan nan nan nan nan nan nan nan nan nan nan nan nan nan nan nan nan nan nan nan nan nan nan nan nan
28 27 25 25 26 28 29 28 27 26 24 22 23 23 24 28 32 39 44 46 45 43 41 40 41 36 33 33 34 33 31 32 36 39 40 40 40 36 37 36 36 36 35 33 31 nan nan nan nan nan nan nan nan nan nan nan nan nan nan nan nan nan nan nan nan nan nan nan nan nan nan nan nan nan nan nan nan nan nan nan nan nan nan nan nan
22 20 18 19 21 24 26 26 25 24 24 23 21 22 26 29 35 39 41 39 40 38 35 35 35 35 34 32 31 28 32 33 36 38 39 39 36 34 34 34 35 35 33 31 nan nan nan nan nan nan nan nan nan nan nan nan nan nan nan nan nan nan nan nan nan nan nan nan nan nan nan nan nan nan nan nan nan nan nan nan nan nan nan nan nan
17 17 13 13 15 19 21 23 23 23 24 23 24 27 29 31 35 33 33 33 34 34 34 34 32 32 30 28 28 32 31 30 35 36 37 36 35 34 33 33 34 33 32 30 nan nan nan nan nan nan nan nan nan nan nan nan nan nan nan nan nan nan nan nan nan nan nan nan nan nan nan nan nan nan nan nan nan nan nan nan nan nan nan nan nan
17 18 17 13 12 16 19 20 22 23 24 24 25 29 30 33 34 31 29 30 33 34 33 32 30 29 30 31 32 32 31 30 32 33 35 35 35 33 32 32 32 31 nan nan nan nan nan nan nan nan nan nan nan nan nan nan nan nan nan nan nan nan nan nan nan nan nan nan nan nan nan nan nan nan nan nan nan nan nan nan nan nan nan nan nan
17 18 17 14 10 12 14 15 18 20 22 23 25 28 30 31 30 30 28 29 31 31 32 32 31 30 31 30 30 32 33 31 28 29 33 36 36 33 31 31 31 nan nan nan nan nan nan nan nan nan nan nan nan nan nan nan nan nan nan nan nan nan nan nan nan nan nan nan nan nan nan nan nan nan nan nan nan nan nan nan nan nan nan nan nan
17 14 13 13 11 8 10 11 12 15 17 21 24 25 23 23 24 26 27 28 31 31 30 29 29 30 29 28 30 30 28 29 27 29 35 37 37 34 29 30 nan nan nan nan nan nan nan nan nan nan nan nan nan nan nan nan nan nan nan nan nan nan nan nan nan nan nan nan nan nan nan nan nan nan nan nan nan nan nan nan nan nan nan nan nan
15 12 10 11 12 11 11 10 7 13 18 19 20 21 21 21 22 23 26 29 29 29 28 27 26 26 26 27 28 28 26 29 29 28 34 34 34 34 30 29 29 29 nan nan nan nan nan nan nan nan nan nan nan nan nan nan nan nan nan nan nan nan nan nan nan nan nan nan nan nan nan nan nan nan nan nan nan nan nan nan nan nan nan nan nan
14 11 10 10 10 10 11 10 12 15 15 15 17 18 20 23 24 24 27 29 29 29 28 27 25 25 25 26 26 26 27 26 28 26 28 29 29 31 33 31 30 nan nan nan nan nan nan nan nan nan nan nan nan nan nan nan nan nan nan nan nan nan nan nan nan nan nan nan nan nan nan nan nan nan nan nan nan nan nan nan nan nan nan nan nan
14 11 10 10 9 8 8 10 14 16 17 17 18 20 22 24 21 20 23 27 27 27 26 24 23 23 24 24 24 24 24 24 23 26 27 28 28 31 32 32 30 26 nan nan nan nan nan nan nan nan nan nan nan nan nan nan nan nan nan nan nan nan nan nan nan nan nan nan nan nan nan nan nan nan nan nan nan nan nan nan nan nan nan nan nan
13 12 12 12 15 13 11 11 13 16 17 19 20 20 21 22 20 20 21 24 25 24 23 22 23 24 23 23 22 22 23 23 24 26 30 28 29 30 31 31 31 33 29 nan nan nan nan nan nan nan nan nan nan nan nan nan nan nan nan nan nan nan nan nan nan nan nan nan nan nan nan nan nan nan nan nan nan nan nan nan nan nan nan nan nan
12 12 13 13 6 5 12 14 14 14 15 16 17 15 18 20 22 22 22 23 23 22 23 22 24 24 22 22 22 22 24 25 26 26 26 28 27 29 30 31 31 32 32 nan nan nan nan nan nan nan nan nan nan nan nan nan nan nan nan nan nan nan nan nan nan nan nan nan nan nan nan nan nan nan nan nan nan nan nan nan nan nan nan nan nan
11 12 13 7 5 8 9 14 12 10 13 17 19 17 16 17 19 19 19 19 20 20 22 22 23 22 22 21 22 23 24 25 25 24 24 25 24 25 27 28 35 nan nan nan nan nan nan nan nan nan nan nan nan nan nan nan nan nan nan nan nan nan nan nan nan nan nan nan nan nan nan nan nan nan nan nan nan nan nan nan nan nan nan nan nan
14 11 10 10 8 6 7 7 12 14 14 17 18 14 12 12 15 15 12 14 17 18 18 19 18 19 20 21 22 23 23 23 24 25 24 24 23 23 24 25 nan nan nan nan nan nan nan nan nan nan nan nan nan nan nan nan nan nan nan nan nan nan nan nan nan nan nan nan nan nan nan nan nan nan nan nan nan nan nan nan nan nan nan nan nan
18 16 13 11 9 7 6 11 14 15 19 21 19 17 13 12 14 16 14 10 12 14 16 15 15 15 18 19 20 20 21 22 22 23 23 23 23 23 23 nan nan nan nan nan nan nan nan nan nan nan nan nan nan nan nan nan nan nan nan nan nan nan nan nan nan nan nan nan nan nan nan nan nan nan nan nan nan nan nan nan nan nan nan nan nan
16 13 10 9 7 5 7 10 13 15 17 19 19 21 25 25 20 14 14 16 15 11 11 15 15 16 16 16 17 18 18 21 25 27 27 26 26 28 nan nan nan nan nan nan nan nan nan nan nan nan nan nan nan nan nan nan nan nan nan nan nan nan nan nan nan nan nan nan nan nan nan nan nan nan nan nan nan nan nan nan nan nan nan nan nan
13 9 7 7 6 6 7 10 11 13 14 17 19 20 19 21 28 26 17 12 14 18 20 21 21 18 20 18 24 30 29 nan 28 28 28 nan nan nan nan nan nan nan nan nan nan nan nan nan nan nan nan nan nan nan nan nan nan nan nan nan nan nan nan nan nan nan nan nan nan nan nan nan nan nan nan nan nan nan nan nan nan nan nan nan nan
11 8 7 7 7 7 7 8 10 11 13 15 18 16 15 16 21 28 26 24 26 25 23 24 24 24 25 nan nan 24 nan nan nan nan nan nan nan nan nan nan nan nan nan nan nan nan nan nan nan nan nan nan nan nan nan nan nan nan nan nan nan nan nan nan nan nan nan nan nan nan nan nan nan nan nan nan nan nan nan nan nan nan nan nan nan
9 8 8 7 7 6 6 7 8 11 12 12 13 13 14 15 18 20 25 30 31 31 30 27 26 nan nan nan nan nan 25 27 30 nan nan nan nan nan nan nan nan nan nan nan nan nan nan nan nan nan nan nan nan nan nan nan nan nan nan nan nan nan nan nan nan nan nan nan nan nan nan nan nan nan nan nan nan nan nan nan nan nan nan nan nan
8 8 8 8 8 6 6 7 6 7 9 10 11 14 15 13 13 16 18 20 25 29 32 32 nan nan nan nan nan 31 32 32 32 nan nan nan nan nan nan nan nan nan nan nan nan nan nan nan nan nan nan nan nan nan nan nan nan nan nan nan nan nan nan nan nan nan nan nan nan nan nan nan nan nan nan nan nan nan nan nan nan nan nan nan nan
10 7 4 9 9 6 6 7 7 5 6 10 13 13 14 12 13 15 17 19 20 20 18 20 nan nan nan 24 26 29 30 32 34 nan nan nan nan nan nan nan nan nan nan nan nan nan nan nan nan nan nan nan nan nan nan nan nan nan nan nan nan nan nan nan nan nan nan nan nan nan nan nan nan nan nan nan nan nan nan nan nan nan nan nan nan
10 8 8 10 11 9 8 8 7 6 6 10 14 16 15 12 15 17 19 21 22 22 20 19 18 21 25 24 25 27 nan nan nan nan nan nan nan nan nan nan nan nan nan nan nan nan nan nan nan nan nan nan nan nan nan nan nan nan nan nan nan nan nan nan nan nan nan nan nan nan nan nan nan nan nan nan nan nan nan nan nan nan nan nan nan
11 10 10 11 11 10 9 9 9 9 11 14 18 18 14 13 16 17 19 21 24 24 23 21 21 21 21 22 nan nan nan nan nan nan nan nan nan nan nan nan nan nan nan nan nan nan nan nan nan nan nan nan nan nan nan nan nan nan nan nan nan nan nan nan nan nan nan nan nan nan nan nan nan nan nan nan nan nan nan nan nan nan nan nan nan
13 11 11 12 11 12 11 10 11 14 16 18 18 17 16 16 17 18 20 22 24 25 24 23 23 22 23 nan nan nan nan nan nan nan nan nan nan nan nan nan nan nan nan nan nan nan nan nan nan nan nan nan nan nan nan nan nan nan nan nan nan nan nan nan nan nan nan nan nan nan nan nan nan nan nan nan nan nan nan nan nan nan nan nan nan
15 14 14 14 13 13 13 12 13 17 19 19 18 17 17 19 22 22 22 22 24 24 24 23 24 24 24 nan nan nan nan nan nan nan nan nan nan nan nan nan nan nan nan nan nan nan nan nan nan nan nan nan nan nan nan nan nan nan nan nan nan nan nan nan nan nan nan nan nan nan nan nan nan nan nan nan nan nan nan nan nan nan nan nan nan
17 16 15 17 17 17 17 18 19 20 20 19 19 17 18 22 24 24 23 23 24 24 25 25 24 24 nan nan nan nan nan nan nan nan nan nan nan nan nan nan nan nan nan nan nan nan nan nan nan nan nan nan nan nan nan nan nan nan nan nan nan nan nan nan nan nan nan nan nan nan nan nan nan nan nan nan nan nan nan nan nan nan nan nan nan
18 18 17 18 19 20 21 22 23 24 21 20 20 20 19 21 25 26 25 24 26 26 26 24 23 23 nan nan nan nan nan nan nan nan nan nan nan nan nan nan nan nan nan nan nan nan nan nan nan nan nan nan nan nan nan nan nan nan nan nan nan nan nan nan nan nan nan nan nan nan nan nan nan nan nan nan nan nan nan nan nan nan nan nan nan
19 20 20 20 22 22 23 23 24 23 21 21 22 22 23 24 25 26 26 25 25 24 24 25 25 nan nan nan nan nan nan nan nan nan nan nan nan nan nan nan nan nan nan nan nan nan nan nan nan nan nan nan nan nan nan nan nan nan nan nan nan nan nan nan nan nan nan nan nan nan nan nan nan nan nan nan nan nan nan nan nan nan nan nan nan
18 20 19 20 21 22 23 24 24 23 22 21 22 22 22 23 25 26 26 26 26 25 26 nan nan nan nan nan nan nan nan nan nan nan nan nan nan nan nan nan nan nan nan nan nan nan nan nan nan nan nan nan nan nan nan nan nan nan nan nan nan nan nan nan nan nan nan nan nan nan nan nan nan nan nan nan nan nan nan nan nan nan nan nan nan
21 20 19 20 22 24 25 25 24 23 22 23 23 24 24 23 25 27 28 28 26 25 nan nan nan nan nan nan nan nan nan nan nan nan nan nan nan nan nan nan nan nan nan nan nan nan nan nan nan nan nan nan nan nan nan nan nan nan nan nan nan nan nan nan nan nan nan nan nan nan nan nan nan nan nan nan nan nan nan nan nan nan nan nan nan
20 19 20 23 24 25 26 26 25 25 26 25 26 nan 25 24 25 26 29 30 29 27 nan nan nan nan nan nan nan nan nan nan nan nan nan nan nan nan nan nan nan nan nan nan nan nan nan nan nan nan nan nan nan nan nan nan nan nan nan nan nan nan nan nan nan nan nan nan nan nan nan nan nan nan nan nan nan nan nan nan nan nan nan nan nan
19 20 22 24 25 26 27 26 26 26 26 26 27 27 28 27 25 26 29 31 31 nan nan nan nan nan nan nan nan nan nan nan nan nan nan nan nan nan nan nan nan nan nan nan nan nan nan nan nan nan nan nan nan nan nan nan nan nan nan nan nan nan nan nan nan nan nan nan nan nan nan nan nan nan nan nan nan nan nan nan nan nan nan nan nan
20 20 23 25 26 26 27 27 27 27 27 27 27 27 28 28 27 28 31 nan nan nan nan nan nan nan nan nan nan nan nan nan nan nan nan nan nan nan nan nan nan nan nan nan nan nan nan nan nan nan nan nan nan nan nan nan nan nan nan nan nan nan nan nan nan nan nan nan nan nan nan nan nan nan nan nan nan nan nan nan nan nan nan nan nan
23 25 26 27 28 27 26 26 29 30 29 29 28 27 28 29 29 30 nan nan nan nan nan nan nan nan nan nan nan nan nan nan nan nan nan nan nan nan nan nan nan nan nan nan nan nan nan nan nan nan nan nan nan nan nan nan nan nan nan nan nan nan nan nan nan nan nan nan nan nan nan nan nan nan nan nan nan nan nan nan nan nan nan nan nan
27 28 30 30 30 29 28 28 29 29 29 29 nan 31 31 nan nan nan nan nan nan nan nan nan nan nan nan nan nan nan nan nan nan nan nan nan nan nan nan nan nan nan nan nan nan nan nan nan nan nan nan nan nan nan nan nan nan nan nan nan nan nan nan nan nan nan nan nan nan nan nan nan nan nan nan nan nan nan nan nan nan nan nan nan nan
30 31 32 33 33 32 31 31 nan nan 30 nan nan nan nan nan nan nan nan nan nan nan nan nan nan nan nan nan nan nan nan nan nan nan nan nan nan nan nan nan nan nan nan nan nan nan nan nan nan nan nan nan nan nan nan nan nan nan nan nan nan nan nan nan nan nan nan nan nan nan nan nan nan nan nan nan nan nan nan nan nan nan nan nan nan
31 32 32 32 nan 32 33 33 32 nan nan nan nan nan nan nan nan nan nan nan nan nan nan nan nan nan nan nan nan nan nan nan nan nan nan nan nan nan nan nan nan nan nan nan nan nan nan nan nan nan nan nan nan nan nan nan nan nan nan nan nan nan nan nan nan nan nan nan nan nan nan nan nan nan nan nan nan nan nan nan nan nan nan nan nan
Wind_Direction
260 258 259 262 262 257 252 252 252 246 244 245 249 251 252 257 259 258 258 262 264 263 264 263 265 266 268 271 275 275 276 273 271 272 274 274 274 275 276 276 277 275 279 280 273 278 281 285 289 291 291 294 296 296 298 300 300 299 299 298 301 302 304 308 310 308 301 301 300 295 288 281 275 278 272 277 284 287 284 290 289 285 280 283 281
258 256 254 257 261 257 248 242 238 239 237 230 224 223 238 251 258 258 260 260 263 264 264 263 265 267 267 270 270 271 270 271 271 270 271 272 273 273 273 278 281 279 280 284 286 283 284 286 289 289 291 296 295 295 299 304 305 304 302 301 301 302 303 306 308 307 309 306 303 303 302 293 280 283 272 269 270 271 270 279 290 289 284 286 289
258 255 253 254 257 254 244 239 243 250 255 256 257 255 246 243 245 261 262 262 262 263 264 265 266 268 268 267 269 269 270 271 270 272 271 273 271 268 274 282 285 286 286 288 287 284 284 286 290 294 295 299 300 300 304 305 304 304 301 301 302 303 306 310 311 312 314 311 310 308 302 290 287 277 274 277 278 280 280 277 283 288 292 293 294
254 254 251 250 250 247 249 257 266 263 262 262 265 264 258 261 258 261 265 264 264 261 262 262 261 264 266 266 267 269 270 269 271 276 279 277 275 276 281 279 271 274 283 282 284 286 286 288 293 295 296 298 300 305 309 310 304 303 303 304 306 307 307 310 315 319 312 312 315 313 301 284 284 285 283 286 282 283 285 283 287 283 289 292 292
245 250 250 247 247 253 258 252 244 246 250 248 252 253 255 259 260 266 267 267 266 265 263 262 261 262 264 266 266 270 274 276 279 284 284 279 275 271 261 263 282 289 283 280 285 284 286 293 295 292 291 296 300 302 302 303 300 302 303 302 305 307 308 312 315 316 317 313 310 308 296 291 292 287 286 283 284 288 288 283 286 287 291 292 294
237 239 238 240 247 254 257 256 257 262 265 256 252 255 257 260 263 263 268 269 267 266 266 264 263 264 264 265 266 270 275 279 284 287 284 273 266 263 267 272 277 285 283 282 279 281 287 291 290 288 291 297 297 295 296 300 299 300 300 301 304 309 311 315 317 318 323 321 304 299 290 286 290 293 294 nan nan nan 296 294 293 291 291 nan 290
239 244 248 250 248 250 252 253 259 266 270 269 263 259 260 263 264 262 262 263 263 264 263 265 264 265 265 265 266 267 271 276 279 280 276 272 270 273 272 273 276 276 276 278 277 280 284 283 283 289 294 294 293 296 297 300 302 302 303 305 310 311 315 313 308 306 301 304 309 296 302 298 nan nan nan nan nan nan 295 298 297 296 298 nan nan
245 247 252 257 261 257 254 260 261 263 264 261 262 264 262 261 261 258 258 259 260 263 266 267 266 265 266 268 266 264 267 271 273 274 274 274 274 272 275 276 274 270 274 277 276 276 278 281 284 288 291 292 294 297 301 301 300 299 301 307 310 312 306 308 301 303 302 300 297 303 302 nan nan nan nan nan nan nan nan nan nan nan nan nan nan
241 246 248 251 257 263 265 264 260 260 262 262 265 268 266 261 256 255 257 257 255 257 264 268 267 265 264 266 264 262 263 267 269 271 271 270 275 280 280 280 277 271 265 265 272 277 279 283 289 290 292 298 306 304 304 301 298 299 306 309 308 308 303 302 306 302 311 306 304 298 nan nan nan nan nan nan nan nan nan nan nan nan nan nan nan
248 253 257 257 255 259 269 273 268 265 267 268 267 267 268 264 259 257 257 254 254 257 256 259 266 268 266 263 261 258 258 258 267 279 276 275 276 276 274 276 277 280 283 279 278 277 280 285 287 296 290 287 282 284 288 289 296 301 304 310 309 304 303 303 305 306 306 311 299 nan nan nan nan nan nan nan nan nan nan nan nan nan nan nan nan
250 252 255 258 257 257 265 273 274 272 273 271 268 267 267 266 265 265 264 259 254 254 255 257 259 264 265 262 260 258 257 258 275 277 279 279 273 271 271 272 274 280 286 284 282 280 279 275 273 275 272 272 274 276 282 286 291 295 302 313 314 305 304 303 302 304 306 293 296 297 nan nan nan nan nan nan nan nan nan nan nan nan nan nan nan
247 249 252 256 261 264 264 265 265 265 268 271 270 268 267 266 266 268 269 267 258 254 254 257 256 251 254 258 260 259 260 266 270 264 262 267 269 267 270 273 273 278 281 279 276 278 278 275 274 275 274 273 274 nan 275 284 289 291 286 278 281 293 297 294 296 290 289 295 296 298 nan nan nan nan nan nan nan nan nan nan nan nan nan nan nan
249 251 253 255 261 264 266 270 268 259 262 266 268 268 269 269 267 266 268 267 261 258 254 254 254 250 246 244 244 248 253 263 265 266 270 273 274 272 271 274 275 277 277 276 276 277 278 275 274 269 269 nan nan nan nan 273 278 272 266 269 275 275 275 278 279 286 294 nan nan nan nan nan nan nan nan nan nan nan nan nan nan nan nan nan nan
250 252 255 259 263 265 268 269 270 267 263 263 267 269 270 270 266 263 263 261 258 253 250 252 253 252 256 258 254 249 243 256 267 272 270 269 269 268 269 271 273 275 277 275 273 275 273 274 nan nan nan nan nan nan nan nan nan nan nan nan 274 272 271 272 276 280 nan nan nan nan nan nan nan nan nan nan nan nan nan nan nan nan nan nan nan
254 257 259 260 262 264 269 273 272 267 266 266 268 269 271 269 262 257 260 256 246 243 248 253 257 258 256 257 256 257 258 267 265 267 267 266 268 268 268 268 268 268 267 268 271 272 nan nan nan nan nan nan nan nan nan nan nan nan nan nan nan nan nan nan nan nan nan nan nan nan nan nan nan nan nan nan nan nan nan nan nan nan nan nan nan
243 247 249 253 257 261 262 258 255 257 260 263 266 265 265 264 258 255 260 255 246 247 248 250 258 264 262 263 262 262 264 272 267 264 263 264 266 261 261 260 262 265 266 267 268 nan nan nan nan nan nan nan nan nan nan nan nan nan nan nan nan nan nan nan nan nan nan nan nan nan nan nan nan nan nan nan nan nan nan nan nan nan nan nan nan
231 244 251 260 268 272 272 267 259 253 253 258 263 263 260 258 254 259 268 265 259 261 266 267 268 268 267 268 272 271 263 264 264 263 263 263 257 253 253 255 259 263 264 264 nan nan nan nan nan nan nan nan nan nan nan nan nan nan nan nan nan nan nan nan nan nan nan nan nan nan nan nan nan nan nan nan nan nan nan nan nan nan nan nan nan
204 208 227 257 271 278 278 272 262 255 253 256 259 258 259 255 256 266 276 273 267 266 268 269 272 274 277 277 272 266 264 261 266 267 266 259 257 252 253 258 261 262 262 260 nan nan nan nan nan nan nan nan nan nan nan nan nan nan nan nan nan nan nan nan nan nan nan nan nan nan nan nan nan nan nan nan nan nan nan nan nan nan nan nan nan
195 198 200 216 257 276 277 269 258 250 250 256 262 265 265 264 264 269 271 266 263 264 269 271 273 271 269 270 279 278 274 270 271 269 268 265 260 256 258 259 261 260 nan nan nan nan nan nan nan nan nan nan nan nan nan nan nan nan nan nan nan nan nan nan nan nan nan nan nan nan nan nan nan nan nan nan nan nan nan nan nan nan nan nan nan
203 203 200 210 235 275 277 263 251 248 248 254 261 265 267 266 265 264 263 261 267 269 270 269 273 271 272 277 281 281 277 269 267 267 268 269 270 263 260 260 259 nan nan nan nan nan nan nan nan nan nan nan nan nan nan nan nan nan nan nan nan nan nan nan nan nan nan nan nan nan nan nan nan nan nan nan nan nan nan nan nan nan nan nan nan
203 208 207 213 226 259 275 254 241 242 245 250 257 266 269 268 262 260 259 259 262 264 265 266 270 274 274 273 274 278 280 276 269 268 270 273 275 270 259 257 nan nan nan nan nan nan nan nan nan nan nan nan nan nan nan nan nan nan nan nan nan nan nan nan nan nan nan nan nan nan nan nan nan nan nan nan nan nan nan nan nan nan nan nan nan
195 205 205 209 212 221 235 234 228 240 243 251 254 264 265 263 259 256 252 257 260 262 263 266 267 267 267 268 273 277 282 281 267 268 273 276 276 272 261 259 262 261 nan nan nan nan nan nan nan nan nan nan nan nan nan nan nan nan nan nan nan nan nan nan nan nan nan nan nan nan nan nan nan nan nan nan nan nan nan nan nan nan nan nan nan
190 196 198 193 198 210 230 242 240 252 257 259 256 260 259 255 251 254 258 259 260 262 262 263 265 266 265 266 267 270 271 273 279 269 273 275 274 270 270 266 270 nan nan nan nan nan nan nan nan nan nan nan nan nan nan nan nan nan nan nan nan nan nan nan nan nan nan nan nan nan nan nan nan nan nan nan nan nan nan nan nan nan nan nan nan
184 191 190 188 195 208 217 238 254 251 256 256 254 253 252 251 255 252 251 258 260 262 263 264 266 268 269 267 265 266 267 266 274 275 269 271 269 274 276 277 274 266 nan nan nan nan nan nan nan nan nan nan nan nan nan nan nan nan nan nan nan nan nan nan nan nan nan nan nan nan nan nan nan nan nan nan nan nan nan nan nan nan nan nan nan
193 196 192 201 213 222 235 229 237 249 251 250 244 247 251 259 261 257 258 260 262 263 263 267 269 270 268 268 268 267 265 261 259 267 268 268 272 274 273 271 269 269 262 nan nan nan nan nan nan nan nan nan nan nan nan nan nan nan nan nan nan nan nan nan nan nan nan nan nan nan nan nan nan nan nan nan nan nan nan nan nan nan nan nan nan
202 209 215 226 225 215 225 232 243 258 270 262 261 247 258 260 261 261 261 262 265 266 267 267 267 268 265 267 267 267 265 260 254 254 259 264 266 271 270 270 271 270 270 nan nan nan nan nan nan nan nan nan nan nan nan nan nan nan nan nan nan nan nan nan nan nan nan nan nan nan nan nan nan nan nan nan nan nan nan nan nan nan nan nan nan
207 217 235 249 207 209 223 231 248 269 263 249 250 250 247 255 258 256 259 265 267 271 272 271 268 267 269 268 268 267 265 263 260 254 254 258 255 259 262 264 271 nan nan nan nan nan nan nan nan nan nan nan nan nan nan nan nan nan nan nan nan nan nan nan nan nan nan nan nan nan nan nan nan nan nan nan nan nan nan nan nan nan nan nan nan
195 210 226 233 242 233 225 255 252 241 240 240 252 247 237 243 246 247 257 277 282 281 276 275 268 271 274 271 268 265 260 258 259 262 260 255 254 257 262 265 nan nan nan nan nan nan nan nan nan nan nan nan nan nan nan nan nan nan nan nan nan nan nan nan nan nan nan nan nan nan nan nan nan nan nan nan nan nan nan nan nan nan nan nan nan
196 203 222 232 249 275 268 254 254 253 242 233 226 225 238 251 254 235 217 247 286 293 284 274 271 269 279 274 266 259 259 262 263 259 264 267 267 267 270 nan nan nan nan nan nan nan nan nan nan nan nan nan nan nan nan nan nan nan nan nan nan nan nan nan nan nan nan nan nan nan nan nan nan nan nan nan nan nan nan nan nan nan nan nan nan
189 199 215 231 246 255 252 257 263 261 254 248 243 230 223 224 215 230 243 231 234 235 270 280 277 276 259 242 235 260 265 260 256 260 264 266 268 271 nan nan nan nan nan nan nan nan nan nan nan nan nan nan nan nan nan nan nan nan nan nan nan nan nan nan nan nan nan nan nan nan nan nan nan nan nan nan nan nan nan nan nan nan nan nan nan
173 197 220 236 254 246 240 247 246 245 251 256 255 249 237 221 214 210 225 250 264 272 268 272 278 277 270 254 233 239 255 nan 260 261 264 nan nan nan nan nan nan nan nan nan nan nan nan nan nan nan nan nan nan nan nan nan nan nan nan nan nan nan nan nan nan nan nan nan nan nan nan nan nan nan nan nan nan nan nan nan nan nan nan nan nan
166 189 217 236 248 250 244 258 263 260 258 266 266 260 251 243 222 207 218 234 230 234 248 255 258 257 263 nan nan 238 nan nan nan nan nan nan nan nan nan nan nan nan nan nan nan nan nan nan nan nan nan nan nan nan nan nan nan nan nan nan nan nan nan nan nan nan nan nan nan nan nan nan nan nan nan nan nan nan nan nan nan nan nan nan nan
177 199 218 238 247 254 255 261 271 280 281 272 264 255 247 247 246 238 220 225 233 232 223 229 249 nan nan nan nan nan 271 268 268 nan nan nan nan nan nan nan nan nan nan nan nan nan nan nan nan nan nan nan nan nan nan nan nan nan nan nan nan nan nan nan nan nan nan nan nan nan nan nan nan nan nan nan nan nan nan nan nan nan nan nan nan
184 207 223 238 243 249 263 261 264 281 286 282 265 248 244 245 254 253 246 243 232 227 226 226 nan nan nan nan nan 265 269 273 274 nan nan nan nan nan nan nan nan nan nan nan nan nan nan nan nan nan nan nan nan nan nan nan nan nan nan nan nan nan nan nan nan nan nan nan nan nan nan nan nan nan nan nan nan nan nan nan nan nan nan nan nan
191 188 235 249 238 243 260 254 247 260 279 270 267 265 254 255 263 259 258 249 245 252 247 234 nan nan nan 259 266 272 273 274 275 nan nan nan nan nan nan nan nan nan nan nan nan nan nan nan nan nan nan nan nan nan nan nan nan nan nan nan nan nan nan nan nan nan nan nan nan nan nan nan nan nan nan nan nan nan nan nan nan nan nan nan nan
199 196 212 244 242 237 241 245 247 257 264 266 267 258 249 250 261 254 251 245 251 256 252 243 242 234 245 256 272 276 nan nan nan nan nan nan nan nan nan nan nan nan nan nan nan nan nan nan nan nan nan nan nan nan nan nan nan nan nan nan nan nan nan nan nan nan nan nan nan nan nan nan nan nan nan nan nan nan nan nan nan nan nan nan nan
203 202 214 235 241 240 236 240 248 247 238 242 254 256 251 255 263 260 257 257 259 257 256 259 257 252 249 253 nan nan nan nan nan nan nan nan nan nan nan nan nan nan nan nan nan nan nan nan nan nan nan nan nan nan nan nan nan nan nan nan nan nan nan nan nan nan nan nan nan nan nan nan nan nan nan nan nan nan nan nan nan nan nan nan nan
211 217 223 233 238 241 238 232 239 245 237 241 254 261 258 260 265 257 257 258 262 262 262 260 261 267 270 nan nan nan nan nan nan nan nan nan nan nan nan nan nan nan nan nan nan nan nan nan nan nan nan nan nan nan nan nan nan nan nan nan nan nan nan nan nan nan nan nan nan nan nan nan nan nan nan nan nan nan nan nan nan nan nan nan nan
220 233 252 258 252 248 242 236 237 245 248 252 261 262 261 260 263 263 258 258 259 258 259 261 264 269 270 nan nan nan nan nan nan nan nan nan nan nan nan nan nan nan nan nan nan nan nan nan nan nan nan nan nan nan nan nan nan nan nan nan nan nan nan nan nan nan nan nan nan nan nan nan nan nan nan nan nan nan nan nan nan nan nan nan nan
231 242 260 273 258 255 249 244 245 251 258 269 277 276 262 266 270 269 269 267 267 267 269 269 268 267 nan nan nan nan nan nan nan nan nan nan nan nan nan nan nan nan nan nan nan nan nan nan nan nan nan nan nan nan nan nan nan nan nan nan nan nan nan nan nan nan nan nan nan nan nan nan nan nan nan nan nan nan nan nan nan nan nan nan nan
243 256 267 270 267 261 254 251 250 255 264 275 282 279 275 267 267 270 268 265 262 264 265 263 264 269 nan nan nan nan nan nan nan nan nan nan nan nan nan nan nan nan nan nan nan nan nan nan nan nan nan nan nan nan nan nan nan nan nan nan nan nan nan nan nan nan nan nan nan nan nan nan nan nan nan nan nan nan nan nan nan nan nan nan nan
250 257 260 262 265 260 258 259 261 268 274 274 272 275 272 269 271 275 272 265 262 262 262 262 264 nan nan nan nan nan nan nan nan nan nan nan nan nan nan nan nan nan nan nan nan nan nan nan nan nan nan nan nan nan nan nan nan nan nan nan nan nan nan nan nan nan nan nan nan nan nan nan nan nan nan nan nan nan nan nan nan nan nan nan nan
248 252 255 259 261 263 262 263 263 266 268 270 271 270 274 273 273 274 271 263 261 265 267 nan nan nan nan nan nan nan nan nan nan nan nan nan nan nan nan nan nan nan nan nan nan nan nan nan nan nan nan nan nan nan nan nan nan nan nan nan nan nan nan nan nan nan nan nan nan nan nan nan nan nan nan nan nan nan nan nan nan nan nan nan nan
247 248 252 254 255 258 263 266 266 268 269 267 264 265 266 260 261 267 267 261 257 260 nan nan nan nan nan nan nan nan nan nan nan nan nan nan nan nan nan nan nan nan nan nan nan nan nan nan nan nan nan nan nan nan nan nan nan nan nan nan nan nan nan nan nan nan nan nan nan nan nan nan nan nan nan nan nan nan nan nan nan nan nan nan nan
246 252 255 254 257 261 260 260 263 266 267 264 258 nan 256 254 260 264 263 257 248 245 nan nan nan nan nan nan nan nan nan nan nan nan nan nan nan nan nan nan nan nan nan nan nan nan nan nan nan nan nan nan nan nan nan nan nan nan nan nan nan nan nan nan nan nan nan nan nan nan nan nan nan nan nan nan nan nan nan nan nan nan nan nan nan
243 251 254 255 257 260 263 264 267 269 268 266 266 265 264 260 258 261 266 265 255 nan nan nan nan nan nan nan nan nan nan nan nan nan nan nan nan nan nan nan nan nan nan nan nan nan nan nan nan nan nan nan nan nan nan nan nan nan nan nan nan nan nan nan nan nan nan nan nan nan nan nan nan nan nan nan nan nan nan nan nan nan nan nan nan
237 247 255 258 259 262 263 265 265 266 264 262 261 263 264 264 262 261 261 nan nan nan nan nan nan nan nan nan nan nan nan nan nan nan nan nan nan nan nan nan nan nan nan nan nan nan nan nan nan nan nan nan nan nan nan nan nan nan nan nan nan nan nan nan nan nan nan nan nan nan nan nan nan nan nan nan nan nan nan nan nan nan nan nan nan
234 239 247 255 260 263 262 259 258 258 260 264 266 266 266 265 260 256 nan nan nan nan nan nan nan nan nan nan nan nan nan nan nan nan nan nan nan nan nan nan nan nan nan nan nan nan nan nan nan nan nan nan nan nan nan nan nan nan nan nan nan nan nan nan nan nan nan nan nan nan nan nan nan nan nan nan nan nan nan nan nan nan nan nan nan
235 242 248 250 251 252 255 257 258 258 260 263 nan 262 258 nan nan nan nan nan nan nan nan nan nan nan nan nan nan nan nan nan nan nan nan nan nan nan nan nan nan nan nan nan nan nan nan nan nan nan nan nan nan nan nan nan nan nan nan nan nan nan nan nan nan nan nan nan nan nan nan nan nan nan nan nan nan nan nan nan nan nan nan nan nan
241 245 250 251 252 252 253 255 nan nan 255 nan nan nan nan nan nan nan nan nan nan nan nan nan nan nan nan nan nan nan nan nan nan nan nan nan nan nan nan nan nan nan nan nan nan nan nan nan nan nan nan nan nan nan nan nan nan nan nan nan nan nan nan nan nan nan nan nan nan nan nan nan nan nan nan nan nan nan nan nan nan nan nan nan nan
249 252 254 256 nan 257 259 261 261 nan nan nan nan nan nan nan nan nan nan nan nan nan nan nan nan nan nan nan nan nan nan nan nan nan nan nan nan nan nan nan nan nan nan nan nan nan nan nan nan nan nan nan nan nan nan nan nan nan nan nan nan nan nan nan nan nan nan nan nan nan nan nan nan nan nan nan nan nan nan nan nan nan nan nan nan